Regional Weather Roundup
Issued by NWS

Home | Current Version | Previous Version | Graphics & Text | Print | Product List | Glossary On
Versions: 1 2 3 4 5 6 7 8 9 10 11 12 13 14 15 16 17 18 19 20 21 22 23 24 25 26 27 28 29 30 31 32 33 34 35 36 37 38 39 40 41 42 43 44 45 46 47 48 49 50
000
ASUS43 KOAX 211010
RWRNE

WEATHER ROUNDUP FOR NEBRASKA
NATIONAL WEATHER SERVICE OMAHA NE
400 AM CST FRI NOV 21 2014

NOTES: SATELLITE DATA IS BEING USED TO AUGMENT CLOUD COVER ABOVE
       12000 FEET.
       "FAIR" INDICATES FEW OR NO CLOUDS BELOW 12,000 FEET WITH NO
       SIGNIFICANT WEATHER AND/OR OBSTRUCTIONS TO VISIBILITY.

  * THESE STATIONS DO NOT REPORT WEATHER SUCH AS RAIN...SNOW OR FOG.

NEZ001>004-019>022-054>056-211100-
NEBRASKA PANHANDLE

CITY           SKY/WX    TMP DP  RH WIND       PRES   REMARKS
SCOTTSBLUFF    MOCLDY    27  18  69 E3        29.92F
ALLIANCE       MOCLDY    25  18  74 CALM      29.91S
CHADRON        MOCLDY    25  20  81 SW5       29.89S WCI  19
KIMBALL        CLOUDY    32  20  60 S7        29.92S WCI  26
SIDNEY         MOCLDY    32  19  58 SW5       29.95S WCI  27
$$

NEZ057>060-069>072-079>082-211100-
SOUTHWEST NEBRASKA

CITY           SKY/WX    TMP DP  RH WIND       PRES   REMARKS
NORTH PLATTE   MOCLDY    19  15  84 CALM      30.03F
IMPERIAL       CLOUDY    30  22  72 SE3       30.00F
LEXINGTON      PTCLDY    23  19  83 S5        30.07F WCI  17
MCCOOK         MOCLDY    20  16  84 E5        30.05F WCI  13
OGALLALA       MOCLDY    23  20  87 CALM      29.98F
$$

NEZ005>010-023>029-035>040-094-211100-
NORTH CENTRAL NEBRASKA

CITY           SKY/WX    TMP DP  RH WIND       PRES   REMARKS
VALENTINE      CLEAR     27  20  75 SW12      29.93F WCI  17
AINSWORTH      CLEAR     25  19  78 S17G23    29.95F WCI  12
BROKEN BOW     CLEAR     23  17  78 S12       30.05F WCI  12
O`NEILL        CLEAR     24  20  85 S15       30.04F WCI  11
ORD            PTCLDY    14  12  92 E6        30.08F WCI   5
THEDFORD       CLEAR     28  22  80 S8        29.97F WCI  19
$$

NEZ041-046>049-061>064-073>077-083>087-211100-
SOUTH CENTRAL NEBRASKA

CITY           SKY/WX    TMP DP  RH WIND       PRES   REMARKS
GRAND ISLAND   PTCLDY    21  16  81 S10       30.14F WCI  10
AURORA         PTCLDY    19  16  87 S6        30.14F WCI  11
HASTINGS       CLEAR     20  15  81 S7        30.12F WCI  11
HEBRON         PTCLDY    19  15  81 CALM      30.17F
HOLDREGE       PTCLDY    23  18  78 S7        30.09S WCI  15
KEARNEY *      CLEAR     21  16  79 SE9       30.11F WCI  11
YORK           PTCLDY    18  16  93 S7        30.16F WCI   8
$$

NEZ011>018-030>034-042>045-211100-
NORTHEAST NEBRASKA

CITY           SKY/WX    TMP DP  RH WIND       PRES   REMARKS
NORFOLK        PTCLDY    18  15  88 SE9       30.14F WCI   7
ALBION         PTCLDY    19  15  84 SE8       30.12F WCI   9
BLAIR          PTCLDY    20  15  79 SE7       30.20F WCI  11
COLUMBUS *     MOCLDY    19  12  73 SE3       30.17F
FREMONT        PTCLDY    20  16  84 SE8       30.20F WCI  10
TEKAMAH        PTCLDY    14   9  80 S6        30.23F WCI   5
WAYNE          PTCLDY    17  13  87 S9        30.17F WCI   5
$$

NEZ050>053-065>068-078-088>093-211100-
SOUTHEAST NEBRASKA

CITY           SKY/WX    TMP DP  RH WIND       PRES   REMARKS
LINCOLN        PTCLDY    20  15  81 SE3       30.22F
OMAHA EPPLEY   PTCLDY    18  13  80 SE8       30.25F WCI   8
BEATRICE       PTCLDY    21  17  83 E3        30.19F
FALLS CITY     CLEAR     18  15  88 E6        30.24F WCI  10
NEBRASKA CITY  PTCLDY    17  12  78 SE3       30.23F
PLATTSMOUTH    PTCLDY    20  14  79 SE9       30.22F WCI   9
$$

NEZ044-045-051>053-067-211100-
OMAHA AREA

CITY           SKY/WX    TMP DP  RH WIND       PRES   REMARKS
OMAHA EPPLEY   PTCLDY    18  13  80 SE8       30.25F WCI   8
BLAIR          PTCLDY    20  15  79 SE7       30.20F WCI  11
FREMONT        PTCLDY    20  16  84 SE8       30.20F WCI  10
MILLARD        PTCLDY    19  14  82 SE3       30.23F
OFFUTT AFB     PTCLDY    17  12  81 E7        30.23F WCI   7
PLATTSMOUTH    PTCLDY    20  14  79 SE9       30.22F WCI   9
WAHOO          FAIR      15  12  88 S6        30.21F WCI   6
$$



USA.gov is the U.S. government's official web portal to all federal, state and local government web resources and services.